Lid_Strength_Index
1 2 2 3 8 9 9 8 5 6 6 4 3 4 5 4 6 9 1 0 -0 -0 -1 -1 -0 -1 -1 -1 -1 -1 -1 -1 -1 -1 -1 -1 -1 -1 -1 -1 -1 -1 -1 -1 -1 -1 -2 -1 -1
2 2 3 5 9 11 10 6 6 5 4 4 4 4 4 5 3 3 2 0 -0 -0 -1 -1 -0 -1 -1 -1 -1 -1 -1 -1 -1 -1 -1 -1 -1 -1 -1 -1 -1 -1 -1 -1 -2 -2 -2 -1 -1
3 3 5 7 8 10 8 6 6 5 5 5 5 3 4 5 3 2 1 0 -0 -0 -1 -1 -0 -0 -1 -1 -1 -1 -1 -1 -1 -1 -1 -1 -1 -1 -1 -1 -1 -1 -1 -2 -2 -2 -1 -1 -1
4 4 5 8 9 8 7 6 5 6 6 5 5 5 3 2 2 1 0 -0 -0 -0 -1 -1 -0 -0 -1 -1 -1 -1 -1 -1 -1 -1 -1 -1 -1 -1 -1 -1 -1 -2 -2 -2 -2 -2 -2 -1 -1
3 6 8 9 8 7 5 5 5 6 7 6 5 5 5 2 1 0 0 -0 0 -0 -1 -1 -0 -1 -1 -1 -1 -1 -1 -1 -1 -1 -1 -1 -1 -1 -1 -1 -1 -2 -2 -2 -2 -2 -2 -2 -1
4 6 9 9 8 7 6 5 6 6 6 6 6 6 4 2 1 1 0 0 -0 -0 -1 -1 -1 -0 -0 -1 -1 -1 -1 -1 -1 -1 -1 -1 -1 -1 -1 -1 -1 -2 -2 -2 -2 -2 -2 -2 -2
5 6 9 8 8 7 6 5 6 6 6 6 5 7 4 3 1 1 0 -0 -0 -0 -0 -0 -1 -1 -1 -1 -1 -1 -1 -1 -1 -1 -1 -1 -1 -1 -1 -1 -1 -2 -2 -2 -2 -2 -3 -3 -2
4 5 7 8 8 8 5 5 5 6 7 4 5 7 5 4 1 1 0 0 0 -0 -0 -0 -1 -1 -1 -1 -1 -1 -1 -1 -1 -1 -1 -1 -1 -1 -1 -1 -1 -2 -2 -2 -2 -3 -3 -3 -3
2 6 8 7 8 7 4 7 6 5 6 6 5 5 4 4 3 1 1 1 1 0 -0 -0 -0 -1 -1 -1 -1 -1 -1 -1 -1 -1 -1 -1 -1 -1 -1 -2 -2 -1 -2 -2 -2 -2 -2 -2 -2
5 7 7 5 5 5 5 7 6 7 6 6 6 4 4 4 4 3 2 2 2 1 0 -0 -1 -0 -1 -1 -1 -1 -1 -1 -1 -1 -1 -1 -2 -2 -2 -2 -2 -1 -1 -1 -2 -2 -2 -2 -1
4 7 5 5 5 5 5 6 4 6 8 6 6 5 5 4 4 4 4 2 2 1 0 -0 -0 -1 -1 -0 -0 -1 -1 -1 -1 -1 -2 -2 -2 -2 -1 -1 -1 -2 -2 -1 -1 -2 -1 -2 -2
6 5 4 4 4 5 6 5 6 6 6 5 5 5 5 6 5 5 4 3 1 1 1 -0 -0 -0 -1 -0 -0 -0 -0 -1 -0 -1 -2 -1 -0 -1 -1 -1 -1 -2 -1 -2 -2 -1 -2 -2 -2
6 5 5 4 4 5 5 6 6 5 4 4 4 4 5 5 4 3 2 2 1 1 1 0 -0 -0 -0 -0 -0 -0 -0 -0 -1 -1 -1 -1 -1 -1 -1 -1 -1 -1 -1 -1 -1 -1 -1 -1 -1
4 5 5 5 5 5 6 6 6 5 4 4 4 4 4 5 4 3 2 2 1 0 1 0 0 -0 -0 0 -0 -0 -0 -0 -0 -1 -1 -1 -1 -1 -1 -1 -1 -1 -1 -1 -1 -1 -1 -1 -1
5 7 6 6 5 6 5 7 7 4 4 4 4 3 3 2 2 4 2 1 1 0 0 0 0 -0 0 -0 -0 -0 -0 -0 -0 -0 -1 -1 -1 -1 -1 -0 -0 -1 -2 -2 -2 -1 -1 -1 -1
7 6 8 6 5 6 6 9 5 4 5 5 4 4 3 3 2 1 2 1 0 0 0 -0 0 -0 0 0 0 0 -0 -0 -0 -0 -1 -1 -1 -2 -0 -0 -0 -1 -1 -1 -1 -0 -0 -0 -0
7 9 8 7 5 6 7 8 6 5 5 5 5 4 4 3 2 1 1 0 0 -0 0 0 -0 0 0 0 0 -0 -0 -0 -0 -0 -0 -0 -1 -1 -0 -0 -0 -1 -0 -0 -0 -0 -0 0 0
9 9 8 8 6 6 7 7 6 5 5 5 5 5 5 4 3 2 1 0 -0 -0 -1 -0 0 0 0 0 0 0 0 0 -0 -0 -0 -0 -0 -1 -0 -0 -1 -0 -0 0 -0 -0 -0 -0 0
7 8 8 7 6 7 7 7 6 4 4 5 4 4 4 4 3 2 1 0 0 -0 -0 0 1 1 1 1 2 2 2 1 0 -0 -0 -1 -0 -0 -0 -0 -0 -0 0 0 -0 0 0 1 -0
7 8 8 7 6 6 7 7 6 5 5 4 4 4 3 3 2 2 1 1 1 0 -0 0 0 1 1 1 1 1 1 1 0 0 -0 -0 -0 -0 0 0 -0 -0 0 0 0 1 1 1 0
8 8 8 8 7 6 7 8 7 5 4 4 4 3 3 3 3 2 2 1 1 1 0 0 0 0 1 0 1 1 1 1 1 1 1 0 -0 -0 -0 -0 -0 -0 0 1 1 1 1 2 1
9 6 7 8 9 11 7 12 8 6 6 5 4 4 3 3 2 2 2 1 1 1 0 -0 -1 0 0 0 1 1 2 3 2 1 1 0 -0 -0 -0 -0 -0 -0 0 0 1 0 1 1 2
8 6 7 7 9 9 9 11 9 6 7 6 5 4 3 3 2 2 2 1 1 0 0 -0 -0 -0 -0 0 1 1 2 2 1 1 1 1 0 0 -0 -0 -0 0 0 0 0 0 1 1 2
6 7 7 7 9 13 10 10 10 8 7 6 5 4 4 3 3 2 2 1 1 1 0 0 0 0 -0 0 1 1 2 2 2 2 2 1 1 1 0 -0 0 -0 0 0 0 0 0 1 1
7 9 13 14 13 14 9 10 9 7 6 6 5 5 4 3 3 3 2 2 2 1 1 1 1 1 0 0 1 1 1 1 2 2 2 2 2 1 1 0 0 0 0 0 0 0 0 1 1
8 9 13 18 16 13 9 12 9 6 5 5 4 4 3 3 3 3 2 2 2 1 1 1 1 1 1 1 1 1 1 1 1 1 1 1 1 1 0 0 0 0 0 0 -0 0 0 0 1
9 11 8 12 11 13 11 9 7 6 6 5 6 4 4 4 3 3 2 2 2 2 1 1 1 1 1 1 1 1 1 1 1 1 1 1 0 1 0 0 0 0 0 0 -0 1 1 0 0
8 7 11 11 17 17 12 11 11 8 7 6 5 5 4 3 3 3 3 3 2 1 1 1 1 1 1 1 1 1 1 1 1 1 1 1 0 0 1 1 1 0 0 0 0 0 0 1 1
9 10 10 10 11 16 16 12 7 7 6 6 5 4 4 4 3 3 2 2 2 1 1 1 1 1 1 1 1 1 1 1 1 1 1 1 1 1 1 1 1 1 1 0 0 0 1 1 1
8 9 9 12 14 12 13 13 6 6 5 5 5 4 4 3 3 3 2 2 2 2 2 1 1 1 1 1 1 1 1 1 1 1 1 1 1 1 1 1 1 1 1 0 1 1 1 1 1